| time (UTC) | temp F | wind direction | speed knots | gust knots | rain 1hr in | rain 24hr in | rain mn in | humidity % | barometer mb |
| 20260505124518 | 65 | 219 | 3.5 | 8.7 | 0.00 | 0.00 | 0.00 | 63 | 1017.4 |
| 20260505123025 | 64 | 251 | 1.7 | 7.0 | 0.00 | 0.00 | 0.00 | 64 | 1017.4 |
| 20260505121510 | 63 | 266 | 4.3 | 10.4 | 0.00 | 0.00 | 0.00 | 66 | 1017.3 |
| 20260505120009 | 62 | 263 | 5.2 | 9.6 | 0.00 | 0.00 | 0.00 | 68 | 1017.2 |
| 20260505114532 | 61 | 205 | 1.7 | 13.0 | 0.00 | 0.00 | 0.00 | 69 | 1017.2 |
| 20260505113014 | 61 | 240 | 1.7 | 9.6 | 0.00 | 0.00 | 0.00 | 71 | 1017.1 |
| 20260505111533 | 60 | 221 | 3.5 | 7.8 | 0.00 | 0.00 | 0.00 | 72 | 1017.1 |
| 20260505101518 | 59 | 292 | 1.7 | 7.8 | 0.00 | 0.00 | 0.00 | 72 | 1016.3 |
| 20260505100014 | 59 | 215 | 1.7 | 8.7 | 0.00 | 0.00 | 0.00 | 72 | 1016.1 |
| 20260505094516 | 59 | 221 | 1.7 | 6.1 | 0.00 | 0.00 | 0.00 | 71 | 1016.0 |
| 20260505093023 | 60 | 244 | 2.6 | 6.1 | 0.00 | 0.00 | 0.00 | 70 | 1015.9 |
| 20260505091523 | 60 | 215 | 1.7 | 6.1 | 0.00 | 0.00 | 0.00 | 69 | 1015.8 |
| 20260505090025 | 61 | 290 | 1.7 | 8.7 | 0.00 | 0.00 | 0.00 | 68 | 1015.7 |
| 20260505084506 | 61 | 270 | 2.6 | 7.0 | 0.00 | 0.00 | 0.00 | 67 | 1015.8 |
| 20260505083009 | 62 | 279 | 1.7 | 8.7 | 0.00 | 0.00 | 0.00 | 66 | 1015.7 |
| 20260505081518 | 62 | 247 | 2.6 | 7.0 | 0.00 | 0.00 | 0.00 | 66 | 1015.6 |
| 20260505080025 | 62 | 254 | 1.7 | 8.7 | 0.00 | 0.00 | 0.00 | 65 | 1015.5 |
| 20260505074531 | 62 | 211 | 2.6 | 7.0 | 0.00 | 0.00 | 0.00 | 65 | 1015.5 |
| 20260505073012 | 63 | 232 | 1.7 | 7.8 | 0.00 | 0.00 | 0.00 | 64 | 1015.5 |
| 20260505071518 | 63 | 250 | 4.3 | 8.7 | 0.00 | 0.00 | 0.00 | 64 | 1015.3 |
| 20260505070020 | 63 | 257 | 2.6 | 9.6 | 0.00 | 0.00 | 0.00 | 63 | 1015.2 |
| 20260505064524 | 63 | 265 | 1.7 | 8.7 | 0.00 | 0.00 | 0.00 | 62 | 1015.2 |
| 20260505063041 | 63 | 213 | 2.6 | 8.7 | 0.00 | 0.00 | 0.00 | 62 | 1015.2 |
| 20260505061512 | 64 | 275 | 3.5 | 9.6 | 0.00 | 0.00 | 0.00 | 61 | 1015.3 |
| 20260505060017 | 64 | 252 | 3.5 | 7.8 | 0.00 | 0.00 | 0.00 | 61 | 1015.3 |
| 20260505054527 | 64 | 240 | 2.6 | 12.2 | 0.00 | 0.00 | 0.00 | 61 | 1015.4 |
| 20260505053026 | 64 | 222 | 3.5 | 9.6 | 0.00 | 0.00 | 0.00 | 60 | 1015.6 |
| 20260505051513 | 64 | 225 | 3.5 | 13.0 | 0.00 | 0.00 | 0.00 | 60 | 1015.5 |
| 20260505041542 | 65 | 340 | 4.3 | 12.2 | 0.00 | 0.00 | 0.00 | 60 | 1015.6 |
| 20260505040011 | 65 | 101 | 2.6 | 13.0 | 0.00 | 0.00 | 0.00 | 60 | 1015.5 |
| 20260505034515 | 65 | 241 | 3.5 | 11.3 | 0.00 | 0.00 | 0.00 | 60 | 1015.5 |
| 20260505033024 | 66 | 242 | 4.3 | 13.0 | 0.00 | 0.00 | 0.00 | 59 | 1015.4 |
| 20260505031531 | 66 | 215 | 4.3 | 12.2 | 0.00 | 0.00 | 0.00 | 59 | 1015.2 |
| 20260505030026 | 66 | 189 | 3.5 | 9.6 | 0.00 | 0.00 | 0.00 | 60 | 1015.3 |
| 20260505024516 | 66 | 234 | 4.3 | 15.6 | 0.00 | 0.00 | 0.00 | 60 | 1015.4 |
| 20260505023022 | 67 | 159 | 6.1 | 15.6 | 0.00 | 0.00 | 0.00 | 60 | 1015.3 |
| 20260505021525 | 67 | 193 | 7.0 | 10.4 | 0.00 | 0.00 | 0.00 | 61 | 1015.1 |
| 20260505020034 | 67 | 223 | 6.1 | 11.3 | 0.00 | 0.00 | 0.00 | 60 | 1015.2 |
| 20260505014527 | 68 | 223 | 5.2 | 14.8 | 0.00 | 0.00 | 0.00 | 60 | 1015.1 |
| 20260505013018 | 68 | 202 | 5.2 | 15.6 | 0.00 | 0.00 | 0.00 | 59 | 1014.9 |
| 20260505011506 | 68 | 198 | 7.0 | 12.2 | 0.00 | 0.00 | 0.00 | 59 | 1014.7 |
| 20260505010013 | 69 | 191 | 5.2 | 11.3 | 0.00 | 0.00 | 0.00 | 59 | 1014.5 |
| 20260505004511 | 69 | 190 | 7.0 | 13.0 | 0.00 | 0.00 | 0.00 | 58 | 1014.2 |
| 20260505003027 | 70 | 229 | 7.0 | 13.0 | 0.00 | 0.00 | 0.00 | 57 | 1014.2 |
| 20260505001520 | 70 | 197 | 4.3 | 17.4 | 0.00 | 0.00 | 0.00 | 56 | 1014.0 |
| 20260505000011 | 71 | 248 | 4.3 | 12.2 | 0.00 | 0.00 | 0.00 | 54 | 1013.8 |
| 20260504234510 | 72 | 250 | 7.8 | 15.6 | 0.00 | 0.00 | 0.00 | 52 | 1013.8 |
| 20260504233014 | 73 | 198 | 5.2 | 13.0 | 0.00 | 0.00 | 0.00 | 49 | 1013.4 |
| 20260504231522 | 75 | 189 | 5.2 | 13.9 | 0.00 | 0.00 | 0.00 | 36 | 1013.2 |
| 20260504230010 | 76 | 263 | 5.2 | 10.4 | 0.00 | 0.00 | 0.00 | 35 | 1013.1 |
| 20260504224509 | 77 | 223 | 3.5 | 11.3 | 0.00 | 0.00 | 0.00 | 35 | 1013.0 |
| 20260504223011 | 77 | 231 | 3.5 | 10.4 | 0.00 | 0.00 | 0.00 | 34 | 1013.2 |
| 20260504221518 | 78 | 259 | 3.5 | 13.9 | 0.00 | 0.00 | 0.00 | 33 | 1013.1 |
| 20260504220024 | 78 | 263 | 2.6 | 10.4 | 0.00 | 0.00 | 0.00 | 33 | 1013.1 |
| 20260504214509 | 78 | 255 | 1.7 | 14.8 | 0.00 | 0.00 | 0.00 | 33 | 1013.2 |
| 20260504213012 | 79 | 234 | 4.3 | 9.6 | 0.00 | 0.00 | 0.00 | 33 | 1013.3 |
| 20260504211527 | 78 | 196 | 6.1 | 17.4 | 0.00 | 0.00 | 0.00 | 33 | 1013.2 |
| 20260504210023 | 79 | 195 | 4.3 | 12.2 | 0.00 | 0.00 | 0.00 | 32 | 1013.3 |
| 20260504204525 | 78 | 157 | 3.5 | 12.2 | 0.00 | 0.00 | 0.00 | 33 | 1013.3 |
| 20260504203006 | 79 | 246 | 4.3 | 13.9 | 0.00 | 0.00 | 0.00 | 32 | 1013.4 |
| 20260504201513 | 78 | 209 | 2.6 | 10.4 | 0.00 | 0.00 | 0.00 | 33 | 1013.5 |
| 20260504200021 | 79 | 167 | 2.6 | 9.6 | 0.00 | 0.00 | 0.00 | 33 | 1013.6 |
| 20260504194525 | 79 | 242 | 3.5 | 10.4 | 0.00 | 0.00 | 0.00 | 33 | 1013.8 |
| 20260504193008 | 78 | 271 | 6.1 | 12.2 | 0.00 | 0.00 | 0.00 | 33 | 1014.0 |
| 20260504191514 | 78 | 195 | 2.6 | 11.3 | 0.00 | 0.00 | 0.00 | 33 | 1014.1 |
| 20260504190018 | 78 | 252 | 6.1 | 14.8 | 0.00 | 0.00 | 0.00 | 33 | 1014.4 |
| 20260504184536 | 77 | 288 | 1.7 | 10.4 | 0.00 | 0.00 | 0.00 | 36 | 1014.6 |
| 20260504183035 | 76 | 273 | 3.5 | 9.6 | 0.00 | 0.00 | 0.00 | 36 | 1014.7 |
| 20260504181510 | 77 | 269 | 4.3 | 11.3 | 0.00 | 0.00 | 0.00 | 36 | 1015.0 |
| 20260504180020 | 76 | 309 | 4.3 | 10.4 | 0.00 | 0.00 | 0.00 | 37 | 1015.1 |
| 20260504174518 | 76 | 265 | 4.3 | 12.2 | 0.00 | 0.00 | 0.00 | 36 | 1015.2 |
| 20260504173025 | 75 | 260 | 7.0 | 15.6 | 0.00 | 0.00 | 0.00 | 37 | 1015.3 |
| 20260504171528 | 75 | 254 | 2.6 | 10.4 | 0.00 | 0.00 | 0.00 | 38 | 1015.6 |